VA3PPY Weather Reports


Display with metric or nautical units.
time (UTC)temp
F
wind
direction
speed
MPH
gust
MPH
rain 1hr
in
rain 24hr
in
rain mn
in
humidity
%
barometer
mb
20260508174502 55 352 2.0 7.0 0.00 0.01 0.01 50 1010.3
20260508173005 54 321 3.0 6.0 0.00 0.01 0.01 53 1010.6
20260508171505 54 302 2.0 7.0 0.00 0.01 0.01 58 1010.7
20260508170003 55 278 2.0 6.0 0.00 0.01 0.01 52 1010.9
20260508164502 54 338 3.0 6.0 0.00 0.01 0.01 54 1010.9
20260508163003 53 322 1.0 6.0 0.00 0.01 0.01 49 1010.9
20260508161503 53 276 1.0 4.0 0.00 0.01 0.01 55 1011.1
20260508160003 52 276 0.0 4.0 0.00 0.01 0.01 62 1011.3
20260508154503 52 276 0.0 4.0 0.00 0.01 0.01 63 1011.2
20260508153003 51 278 1.0 5.0 0.00 0.01 0.01 66 1011.2
20260508151502 51 304 1.0 3.0 0.00 0.01 0.01 63 1011.2
20260508150007 51 304 0.0 3.0 0.00 0.01 0.01 64 1011.3
20260508144503 50 296 1.0 4.0 0.00 0.01 0.01 64 1011.4
20260508143005 49 297 1.0 4.0 0.00 0.01 0.01 63 1011.5
20260508141503 49 269 0.0 3.0 0.00 0.01 0.01 65 1011.5
20260508140003 49 235 1.0 4.0 0.00 0.01 0.01 70 1011.6
20260508134502 49 287 0.0 3.0 0.00 0.01 0.01 70 1011.6
20260508133002 49 269 1.0 4.0 0.00 0.01 0.01 69 1011.6
20260508131503 48 288 1.0 4.0 0.00 0.01 0.01 72 1011.4
20260508130003 48 252 0.0 3.0 0.00 0.01 0.01 72 1011.4
20260508124504 47 192 1.0 4.0 0.00 0.01 0.01 73 1011.3
20260508123003 47 191 1.0 3.0 0.00 0.01 0.01 78 1011.1
20260508121503 45 191 0.0 2.0 0.00 0.01 0.01 81 1011.1
20260508120004 43 191 0.0 2.0 0.00 0.01 0.01 86 1011.0
20260508114503 41 191 1.0 4.0 0.00 0.01 0.01 91 1011.1
20260508113003 39 191 0.0 0.0 0.00 0.01 0.01 92 1010.9
20260508111503 38 191 0.0 0.0 0.00 0.01 0.01 93 1010.8
20260508110004 36 191 0.0 0.0 0.00 0.01 0.01 92 1010.7
20260508104503 35 191 0.0 0.0 0.00 0.01 0.01 92 1010.8
20260508103011 35 191 0.0 0.0 0.00 0.01 0.01 91 1010.7
20260508101506 36 191 0.0 0.0 0.00 0.01 0.01 91 1010.7
20260508100006 36 191 0.0 0.0 0.00 0.01 0.01 90 1010.8
20260508094503 37 191 0.0 0.0 0.00 0.01 0.01 90 1010.8
20260508093005 37 191 0.0 0.0 0.00 0.01 0.01 89 1010.8
20260508091506 38 191 0.0 1.0 0.00 0.01 0.01 88 1010.8
20260508090006 39 191 0.0 0.0 0.00 0.01 0.01 86 1010.9
20260508084504 40 191 0.0 0.0 0.00 0.01 0.01 85 1010.8
20260508083003 41 191 0.0 2.0 0.00 0.01 0.01 85 1010.7
20260508081505 41 162 2.0 4.0 0.00 0.01 0.01 85 1010.5
20260508080005 41 162 1.0 4.0 0.00 0.01 0.01 86 1010.7
20260508074504 41 162 0.0 2.0 0.00 0.01 0.01 87 1010.5
20260508073003 41 162 0.0 0.0 0.00 0.01 0.01 87 1010.6
20260508071506 41 162 0.0 0.0 0.00 0.01 0.01 86 1010.9
20260508070006 41 162 0.0 2.0 0.00 0.01 0.01 86 1010.8
20260508064505 42 162 0.0 3.0 0.00 0.01 0.01 86 1011.1
20260508063006 42 162 0.0 0.0 0.00 0.01 0.01 85 1011.4
20260508061507 42 162 0.0 1.0 0.00 0.01 0.01 84 1011.4
20260508060005 41 162 0.0 2.0 0.01 0.01 0.01 87 1011.7
20260508054504 41 162 0.0 2.0 0.01 0.01 0.01 87 1011.6
20260508053005 41 162 0.0 2.0 0.01 0.01 0.01 84 1011.6
20260508051510 43 162 0.0 4.0 0.01 0.01 0.01 80 1011.4
20260508050008 42 162 3.0 6.0 0.00 0.00 0.00 76 1011.6
20260508044505 42 355 1.0 3.0 0.00 0.00 0.00 76 1011.8
20260508043005 41 355 0.0 2.0 0.00 0.00 0.00 80 1011.7
20260508041505 41 355 0.0 0.0 0.00 0.00 0.00 79 1011.7
20260508040011 42 355 0.0 1.0 0.00 0.00 0.00 79 1011.6
20260508034506 42 355 1.0 3.0 0.00 0.00 0.00 77 1011.8
20260508033006 40 355 0.0 0.0 0.00 0.00 0.00 78 1012.0
20260508031505 40 355 0.0 0.0 0.00 0.00 0.00 78 1011.8
20260508030007 40 355 0.0 0.0 0.00 0.00 0.00 78 1011.5
20260508024505 39 355 0.0 0.0 0.00 0.00 0.00 79 1011.5
20260508023010 40 355 0.0 0.0 0.00 0.00 0.00 80 1011.8
20260508021506 39 355 0.0 0.0 0.00 0.00 0.00 81 1011.5
20260508020006 39 355 0.0 0.0 0.00 0.00 0.00 79 1011.5
20260508014505 39 355 0.0 0.0 0.00 0.00 0.00 77 1011.5
20260508013006 39 355 0.0 0.0 0.00 0.00 0.00 76 1011.3
20260508011506 40 355 0.0 0.0 0.00 0.00 0.00 76 1011.2
20260508010008 40 355 0.0 0.0 0.00 0.00 0.00 72 1011.0
20260508004508 42 355 0.0 2.0 0.00 0.00 0.00 69 1011.0
20260508003006 44 355 1.0 3.0 0.00 0.00 0.00 66 1010.9
20260508001505 44 355 0.0 3.0 0.00 0.00 0.00 66 1010.9
20260508000008 44 355 0.0 3.0 0.00 0.00 0.00 65 1011.2
20260507234515 44 355 0.0 3.0 0.00 0.00 0.00 66 1011.0
20260507233006 45 356 1.0 5.0 0.00 0.00 0.00 63 1010.9
20260507231506 45 347 1.0 4.0 0.00 0.00 0.00 64 1011.0
20260507230006 45 15 1.0 5.0 0.00 0.00 0.00 67 1010.9
20260507224508 45 332 2.0 7.0 0.00 0.00 0.00 70 1011.0
20260507223006 46 11 1.0 5.0 0.00 0.00 0.00 68 1011.0
20260507221513 47 14 2.0 7.0 0.00 0.00 0.00 70 1011.0
20260507220007 48 360 2.0 7.0 0.00 0.00 0.00 69 1011.0
20260507214506 47 360 3.0 6.0 0.00 0.00 0.00 66 1011.1
20260507213006 46 53 1.0 5.0 0.00 0.00 0.00 72 1011.1
20260507211511 46 4 3.0 8.0 0.00 0.00 0.00 69 1011.1
20260507210007 47 357 3.0 7.0 0.00 0.00 0.00 66 1011.2
20260507204506 48 32 2.0 7.0 0.00 0.00 0.00 65 1011.1
20260507203007 46 3 2.0 6.0 0.00 0.00 0.00 68 1011.0
20260507201509 46 335 2.0 7.0 0.00 0.00 0.00 68 1011.0
20260507200006 46 57 2.0 7.0 0.00 0.00 0.00 69 1011.0
20260507194511 46 348 1.0 6.0 0.00 0.00 0.00 75 1011.1
20260507193006 46 1 1.0 9.0 0.00 0.00 0.00 74 1011.1
20260507191507 45 349 3.0 8.0 0.00 0.00 0.00 71 1011.3
20260507190006 46 8 2.0 9.0 0.00 0.00 0.00 71 1011.3
20260507184507 46 44 3.0 7.0 0.00 0.00 0.00 74 1011.2
20260507183027 47 342 2.0 7.0 0.00 0.00 0.00 70 1011.2
20260507181507 47 310 3.0 8.0 0.00 0.00 0.00 72 1011.3
20260507180007 47 10 2.0 9.0 0.00 0.00 0.00 71 1011.1